Flag for India Weather past 2 weeks in Chennai, Tamil Nadu, India

Now
82 °F

Scattered clouds.


Feels Like: 85 °F
Forecast: 71 / 84 °F
Wind: 12 mph from Northeast

Location: Madras / Minambakkam

Current Time: Jan 26, 2015 at 2:05:33 PM

Latest Report: Jan 26, 2015 at 12:40 PM


Visibility: 5 mi

Pressure: 29.98 "Hg

Humidity: 62%

Dew point: 68 °F

Location of ChennaiLocation

Historic Weather in Chennai — Graph

°F

Chennai temperature yesterday

Maximum temperature yesterday: 84 °F (at 11:40 AM)
Minimum temperature yesterday: 70 °F (at 3:40 AM)
Average temperature yesterday: 77 °F

Past Weeks' High & Low Weather Summary

 TemperatureHumidityPressure
High86 °F (Jan 23, 2:40 PM)100% (Jan 16, 4:40 AM)30.09 "Hg (Jan 16, 4:40 AM)
Low66 °F (Jan 13, 5:40 AM)40% (Jan 21, 2:40 PM)29.86 "Hg (Jan 13, 1:40 PM)
Average76 °F75%29.96 "Hg
* Reported Jan 11 12:40 PM — Jan 26 12:40 PM, Chennai, Weather by CustomWeather, © 2014

Note: Actual official high and low records may vary slightly from our data, if they occured in-between our weather recording intervals... More about our weather records

Advertising

Chennai weather history for previous 24 hours

 ConditionsComfort  
Time TempWeatherWind HumidityBarometerVisibility
12:40 PM
Jan 26
82 °FScattered clouds.12 mph62%29.98 "Hg5 mi
11:40 AM84 °FScattered clouds.14 mph55%30.01 "Hg4 mi
10:40 AM86 °FScattered clouds.12 mph52%30.04 "Hg4 mi
7:40 AM73 °FFog.No wind89%30.01 "Hg1 mi
6:40 AM70 °FFog.No wind94%29.98 "Hg2 mi
5:40 AM70 °FFog.No wind94%29.98 "Hg2 mi
4:40 AM72 °FFog.No wind88%29.95 "Hg2 mi
3:40 AM72 °FFog.No wind88%29.95 "Hg3 mi
2:40 AM72 °FPassing clouds.No wind88%29.95 "Hg4 mi
1:40 AM73 °FPassing clouds.3 mph83%29.98 "Hg4 mi
12:40 AM75 °FPassing clouds.5 mph78%30.01 "Hg4 mi
11:40 PM
Jan 25
75 °FPassing clouds.5 mph78%30.01 "Hg4 mi
10:40 PM75 °FPassing clouds.3 mph78%30.01 "Hg4 mi
9:40 PM77 °FPassing clouds.6 mph79%30.04 "Hg4 mi
8:40 PM77 °FPassing clouds.5 mph79%30.01 "Hg4 mi
7:40 PM77 °FPassing clouds.8 mph74%30.01 "Hg4 mi
6:40 PM77 °FPassing clouds.9 mph74%29.98 "Hg4 mi
5:40 PM79 °FPassing clouds.9 mph70%29.95 "Hg4 mi
4:40 PM82 °FPassing clouds.14 mph62%29.95 "Hg4 mi
3:40 PM84 °FPassing clouds.9 mph58%29.95 "Hg5 mi
2:40 PM82 °FScattered clouds.9 mph58%29.95 "Hg5 mi
Weather by CustomWeather, © 2014

See weather overviewHow to use our weather pages